(804) Hispania
ephemeris date magn radius delta ra dec elong phase
Opposition7 Jun 202611.92.681 AU1.724 AU16h47m-46°57'155.6°9.0°
Today13 Jun 202611.92.673 AU1.719 AU16h40m-46°48'154.9°9.3°
(804) Hispania - 2026-06-13
astro.vanbuitenen.nl


 
-1 year
-1 month
-1 day
Now
+1 day
+1 month
+1 year

The interactive orbit chart above shows the body's path through the solar system and its position at the given date. Green and blue lines are shown perpendicular to the ecliptic plane: Green if the path is above the ecliptic plane, blue if it is below. (Left-click and drag to rotate the view; Right-click and drag to move the view; Use scroll wheel to zoom in our out.)

The orbital elements of Hispania are:

            e (Eccentricity)                : 0.1415579
            a (Semimajor axis)              : 2.8376031
            i (Inclination)                 : 15.38610
            Ω (Longitude of ascending node) : 347.53685
            ω (Argument of perihelion)      : 343.76985
            M (Mean anomaly)                : 300.69557
            Epoch                           : 2026 Jun 09

            L (Longitude of perihelion)     : 331.85930
            B (Latitude of perihelion)      : -4.25276
            P (Orbital period in years)     : 4.78            
        

The light curve chart below shows the estimated development of the minor planet's magnitude.


The all-sky chart below shows the path of the minor planet over the same period as the light curve. The current position is marked yellow.





The following chart shows the path of the minor planet in the next few days. The field of view is optimized for (~10x50) binoculars and finderscopes.




Ephemerides:
Date       Time       RA (2000)    DEC (2000)    delta   radius  elong  phase   PA    magn
2026-06-13 00:00 UT   16 40 52.4   -46 48 10     1.719    2.673  154.9    9.3    24   11.9 
2026-06-13 06:48 UT   16 40 32.3   -46 47 27     1.719    2.673  154.8    9.3    24   11.9 
2026-06-14 00:00 UT   16 39 41.7   -46 45 33     1.719    2.672  154.6    9.4    26   11.9 
2026-06-15 00:00 UT   16 38 31.8   -46 42 41     1.719    2.671  154.2    9.5    29   11.9 
2026-06-16 00:00 UT   16 37 22.7   -46 39 33     1.720    2.669  153.8    9.7    32   11.9 
2026-06-17 00:00 UT   16 36 14.6   -46 36 11     1.720    2.668  153.4    9.8    34   11.9 
2026-06-18 00:00 UT   16 35 07.4   -46 32 35     1.721    2.666  153.0   10.0    37   11.9 
2026-06-19 00:00 UT   16 34 01.4   -46 28 45     1.722    2.665  152.5   10.1    39   11.9 
2026-06-20 00:00 UT   16 32 56.6   -46 24 41     1.724    2.664  152.0   10.3    42   12.0 
2026-06-21 00:00 UT   16 31 53.0   -46 20 24     1.725    2.662  151.4   10.5    44   12.0 
2026-06-22 00:00 UT   16 30 50.8   -46 15 54     1.727    2.661  150.8   10.7    46   12.0 
2026-06-23 00:00 UT   16 29 50.0   -46 11 12     1.729    2.660  150.2   10.9    48   12.0 
2026-06-24 00:00 UT   16 28 50.7   -46 06 18     1.731    2.658  149.6   11.2    50   12.0 
2026-06-25 00:00 UT   16 27 52.9   -46 01 13     1.734    2.657  148.9   11.4    52   12.0 
2026-06-26 00:00 UT   16 26 56.8   -45 55 57     1.737    2.655  148.2   11.6    54   12.0 
2026-06-27 00:00 UT   16 26 02.4   -45 50 30     1.740    2.654  147.6   11.9    56   12.0 
2026-06-28 00:00 UT   16 25 09.6   -45 44 54     1.743    2.653  146.8   12.1    58   12.0 
2026-06-29 00:00 UT   16 24 18.7   -45 39 08     1.746    2.651  146.1   12.3    59   12.0 
2026-06-30 00:00 UT   16 23 29.6   -45 33 13     1.750    2.650  145.4   12.6    61   12.1 
2026-07-01 00:00 UT   16 22 42.4   -45 27 09     1.754    2.649  144.6   12.8    62   12.1 
2026-07-02 00:00 UT   16 21 57.0   -45 20 58     1.758    2.647  143.8   13.1    64   12.1 
2026-07-03 00:00 UT   16 21 13.7   -45 14 38     1.762    2.646  143.1   13.3    65   12.1 
2026-07-04 00:00 UT   16 20 32.3   -45 08 12     1.766    2.644  142.3   13.6    67   12.1 
2026-07-05 00:00 UT   16 19 52.9   -45 01 39     1.771    2.643  141.5   13.9    68   12.1 
2026-07-06 00:00 UT   16 19 15.6   -44 55 01     1.776    2.642  140.7   14.1    69   12.1 
2026-07-07 00:00 UT   16 18 40.3   -44 48 16     1.781    2.640  139.9   14.4    70   12.2 
2026-07-08 00:00 UT   16 18 07.2   -44 41 27     1.786    2.639  139.0   14.6    71   12.2 
2026-07-09 00:00 UT   16 17 36.1   -44 34 32     1.791    2.638  138.2   14.9    73   12.2 
2026-07-10 00:00 UT   16 17 07.2   -44 27 34     1.797    2.636  137.4   15.1    74   12.2 
2026-07-11 00:00 UT   16 16 40.5   -44 20 32     1.802    2.635  136.6   15.4    75   12.2 
2026-07-12 00:00 UT   16 16 15.9   -44 13 26     1.808    2.634  135.7   15.6    76   12.2 
2026-07-13 00:00 UT   16 15 53.6   -44 06 18     1.814    2.632  134.9   15.9    77   12.2 


    Terminology:
            
    delta:  distance between minor planet and earth in AU
    radius: distance between minor planet and sun in AU
    magn:   magnitude (brightness) estimate    
    ra:     right ascension in hours (24h = 360deg)
    dec:    declination in degrees
    elong:  elongation in degrees (angle sun-earth-minor planet)    
    phase:  phase angle in degrees (angle sun-minor planet-earth)        
    AU:     Astronomical Unit (mean distance between earth and sun: 149597870.7 km
    

Orbital elements provided by the MPC (Minor Planet Center).
Calculations by a modified version of AAPlus, a C# implementation of the AA+ project by PJ Naughter from the algorithms presented in the book "Astronomical Algorithms" by Jean Meeus.
NGC2000 dso catalog and star labels from VizieR as provided by the Strasbourg astronomical Data Center.
Tycho2 catalog from the ESO archive.